This is the latest recevied weather packets stored in our database for station/object W8KVG. If no packets are shown the sender has not sent any weather packets the latest 1 day(s).
| Time | Temp. | Humidity | Pressure | Rain* | Wind** | Luminosity | Snow |
|---|---|---|---|---|---|---|---|
| 1778004543 | 23.33° C | 51% | 1007.6 hPa | 0 mm | 0.89 m/s, 317° | 828 W/m² | - |
| 1778004240 | 22.78° C | 51% | 1007.7 hPa | 0 mm | 1.34 m/s, 336° | 700 W/m² | - |
| 1778003936 | 23.33° C | 52% | 1007.8 hPa | 0 mm | 0.89 m/s, 322° | 705 W/m² | - |
| 1778003633 | 21.67° C | 52% | 1008 hPa | 0 mm | 1.79 m/s, 186° | 762 W/m² | - |
| 1778003329 | 21.11° C | 55% | 1007.8 hPa | 0 mm | 1.79 m/s, 3° | 396 W/m² | - |
| 1778003027 | 20.56° C | 55% | 1007.7 hPa | 0 mm | 0 m/s | 208 W/m² | - |
| 1778002723 | 20.56° C | 56% | 1007.8 hPa | 0 mm | 0.89 m/s, 339° | 122 W/m² | - |
| 1778002419 | 20.56° C | 56% | 1008 hPa | 0 mm | 2.24 m/s, 335° | 112 W/m² | - |
| 1778002116 | 21.11° C | 57% | 1007.7 hPa | 0 mm | 1.79 m/s, 321° | 90 W/m² | - |
| 1778001814 | 21.11° C | 56% | 1007.6 hPa | 0 mm | 5.36 m/s, 208° | 104 W/m² | - |
| 1778001514 | 21.67° C | 56% | 1007.4 hPa | 0 mm | 0 m/s | 112 W/m² | - |
| 1778001211 | 22.22° C | 54% | 1007.3 hPa | 0 mm | 0 m/s | 173 W/m² | - |
| 1778000907 | 22.22° C | 54% | 1007.1 hPa | 0 mm | 1.79 m/s, 354° | 274 W/m² | - |
| 1778000604 | 22.78° C | 55% | 1007.2 hPa | 0 mm | 0 m/s | 229 W/m² | - |
| 1778000299 | 22.78° C | 52% | 1007.1 hPa | 0 mm | 1.79 m/s, 202° | 183 W/m² | - |
| 1777999995 | 22.78° C | 53% | 1006.9 hPa | 0 mm | 0.45 m/s, 309° | 697 W/m² | - |
| 1777999691 | 22.78° C | 52% | 1007 hPa | 0 mm | 1.79 m/s, 196° | 693 W/m² | - |
| 1777999388 | 22.78° C | 53% | 1006.9 hPa | 0 mm | 0 m/s | 266 W/m² | - |
| 1777999086 | 22.78° C | 53% | 1007.1 hPa | 0 mm | 0.45 m/s, 221° | 116 W/m² | - |
| 1777998785 | 22.78° C | 54% | 1007.1 hPa | 0 mm | 0.89 m/s, 247° | 160 W/m² | - |
| 1777998483 | 22.22° C | 54% | 1006.9 hPa | 0 mm | 0.89 m/s, 263° | 174 W/m² | - |
| 1777998179 | 21.67° C | 56% | 1007 hPa | 0 mm | 0.89 m/s, 228° | 135 W/m² | - |
| 1777997876 | 21.67° C | 55% | 1007.4 hPa | 0 mm | 2.24 m/s, 334° | 203 W/m² | - |
| 1777997573 | 21.67° C | 57% | 1007.5 hPa | 0 mm | 0.45 m/s, 229° | 205 W/m² | - |
| 1777997270 | 21.67° C | 57% | 1007.6 hPa | 0 mm | 1.34 m/s, 194° | 186 W/m² | - |
* Rain latest hour (hover to see other rain measurements)
** Current wind speed in m/s (hover to see current wind gust speed)